Flag for Switzerland Weather past 2 weeks in Altdorf, Uri, Switzerland

Now
59 °F

Cool.


Feels Like: 60 °F
Forecast: 50 / 80 °F
Wind: 3 mph from Northwest

Location: Altdorf

Current Time: Jul 30, 2015 at 10:39:25 AM

Latest Report: Jul 30, 2015 at 10:00 AM


Visibility: N/A

Pressure: 30.02 "Hg

Humidity: 79%

Dew point: 53 °F

Location of AltdorfLocation

Historic Weather in Altdorf — Graph

°F

Altdorf temperature yesterday

Maximum temperature yesterday: 66 °F (at 6:00 PM)
Minimum temperature yesterday: 58 °F (at 6:00 AM)
Average temperature yesterday: 62 °F

Past Weeks' High & Low Weather Summary

 TemperatureHumidityPressure
High87 °F (Jul 16, 4:00 PM)98% (Jul 20, 2:00 AM)30.12 "Hg (Jul 20, 2:00 AM)
Low55 °F (Jul 30, 6:00 AM)38% (Jul 17, 9:00 PM)29.66 "Hg (Jul 24, 5:00 PM)
Average70 °F70%29.94 "Hg
* Reported Jul 15 9:00 AM — Jul 30 9:00 AM, Altdorf, Weather by CustomWeather, © 2015

Note: Actual official high and low records may vary slightly from our data, if they occured in-between our weather recording intervals... More about our weather records

Advertising

Altdorf weather history for previous 24 hours

 ConditionsComfort  
Time TempWeatherWind HumidityBarometerVisibility
9:00 AM
Thu, Jul 30
58 °FCool.No wind83%30.02 "HgN/A
8:00 AM56 °FLow clouds.No wind91%30.02 "Hg12 mi
7:00 AM55 °FCool.No wind93%30.03 "HgN/A
6:00 AM55 °FCool.No wind94%30.02 "HgN/A
4:00 AM56 °FCool.2 mph95%30.01 "HgN/A
3:00 AM56 °FCool.1 mph94%30.02 "HgN/A
2:00 AM56 °FOvercast.2 mph94%30.02 "Hg4 mi
1:00 AM57 °FCool.7 mph83%30.01 "HgN/A
12:00 AM58 °FCool.9 mph85%30.01 "HgN/A
11:00 PM
Wed, Jul 29
58 °FRain. Overcast.9 mph85%30.00 "Hg4 mi
10:00 PM58 °FCool.14 mph90%29.99 "HgN/A
9:00 PM60 °FCool.14 mph86%29.95 "HgN/A
8:00 PM61 °FRain. Overcast.8 mph90%29.92 "Hg4 mi
7:00 PM64 °FMild.18 mph82%29.88 "HgN/A
6:00 PM66 °FMild.10 mph77%29.85 "HgN/A
5:00 PM65 °FLight rain. Overcast.2 mph79%29.85 "Hg12 mi
4:00 PM65 °FMild.2 mph78%29.84 "HgN/A
3:00 PM66 °FMild.6 mph73%29.84 "HgN/A
2:00 PM66 °FOvercast.2 mph72%29.84 "Hg12 mi
1:00 PM65 °FMild.6 mph80%29.85 "HgN/A
12:00 PM64 °FMild.7 mph79%29.83 "HgN/A
11:00 AM64 °FLight rain. Overcast.5 mph76%29.83 "Hg11 mi
10:00 AM62 °FCool.1 mph83%29.84 "HgN/A
Weather by CustomWeather, © 2015

See weather overviewHow to use our weather pages